Preview of NWS' New Version of Forecast
This preview is not operational and should not be used for support decisions.

Regional Weather Roundup (RWR)

Issued by National Weather Service (NWS)

                            
000
ASUS44 KJAN 182310
RWRMS 

MISSISSIPPI HOURLY WEATHER ROUNDUP
NATIONAL WEATHER SERVICE JACKSON MS
600 PM CDT WED SEP 18 2019

NOTE: "FAIR: INDICATES FEW OR NO CLOUDS BELOW 12,000 FEET WITH NO
SIGNIFICANT WEATHER AND/OR OBSTRUCTIONS TO VISIBILITY.

MSZ001>002-007>008-010>013-018>021-025>028-034>036-190000-
NORTHWEST MISSISSIPPI
  
CITY           SKY/WX    TMP DP  RH WIND       PRES   REMARKS
BATESVILLE     FAIR      93  68  43 CALM      29.94R HX  97           
CLARKSDALE       N/A     95  61  31 NE8       29.94R HX  95           
CLEVELAND      FAIR      94  65  37 E7        29.92R HX  96           
GREENWOOD      FAIR      93  71  48 N3        29.92S HX 100           
GREENVILLE     FAIR      93  65  39 SW10      29.91R HX  95           
OLIVE BRANCH   MOSUNNY   93  64  38 N6        29.95S HX  95           
OXFORD         FAIR      93  57  29 N5        29.97R HX  92           
TUNICA           N/A     91  64  40 E3        29.95S HX  93           
WINONA         FAIR      92  69  46 CALM      29.94R HX  97           
$$

MSZ003>006-009-014>017-022>024-029>033-037>039-190000-
NORTHEAST MISSISSIPPI
  
CITY           SKY/WX    TMP DP  RH WIND       PRES   REMARKS
ABERDEEN       FAIR      91  73  55 CALM      29.95S HX 100           
COLUMBUS AFB   FAIR      94  67  41 CALM      29.93S HX  97           
CORINTH        FAIR      91  68  46 CALM      29.96R HX  95           
GOLDN TRIANGLE FAIR      95  68  41 NE5       29.94S HX  99           
STARKVILLE     FAIR      93  63  36 CALM      29.95S HX  94           
TUPELO         FAIR      95  64  35 NE12      29.95R HX  97           
$$

MSZ040-058-190000-
CENTRAL MISSISSIPPI
  
CITY           SKY/WX    TMP DP  RH WIND       PRES   REMARKS
JACKSON INTL   FAIR      93  67  42 S5        29.94R HX  96           
JACKSON HAWKNS FAIR      93  66  40 SW7       29.95R HX  96           
MADISON        FAIR      91  64  40 S6        29.95R HX  93           
MERIDIAN KEY   FAIR      96  65  35 NW5       29.92S HX  98           
MERIDIAN NAS   FAIR      95  65  37 NE5       29.93S HX  97           
RAYMOND          N/A     91  70  49 S3        29.94R HX  97           
VICKSBURG VKS  MOCLDY    90  73  58 SW22G30   29.95R HX  98           
$$

MSZ059>079-190000-
SOUTH MISSISSIPPI
  
CITY           SKY/WX    TMP DP  RH WIND       PRES   REMARKS
BROOKHAVEN     MOCLDY    88  72  58 CALM      29.98R HX  94           
HATTIESBURG    FAIR      92  68  45 W3        29.94R HX  96           
LAUREL         CLEAR     94  64  36 SW5       29.93S HX  95           
MCCOMB         PTSUNNY   84  71  65 W14G23    29.98R                  
NATCHEZ        RAIN      75  73  93 S8        30.00R                  
PINE BELT      FAIR      90  71  53 VRB3      29.95R HX  96           
$$

MSZ080>082-190000-
COASTAL MISSISSIPPI
  
CITY           SKY/WX    TMP DP  RH WIND       PRES   REMARKS
BILOXI         FAIR      86  75  69 SW8       29.94R HX  96           
PASCAGOULA     FAIR      87  73  62 VRB3      29.93R HX  94           
GULFPORT       FAIR      87  74  64 SW7       29.94R HX  95           
$$

LAZ007>009-015>016-023>026-190000-
NORTHEAST LOUISIANA
  
CITY           SKY/WX    TMP DP  RH WIND       PRES   REMARKS
BASTROP        FAIR      84  71  64 SW7       29.96R                  
TALLULAH/VBURG PTSUNNY   91  70  49 SW3       29.93S HX  96           
VIDALIA        CLOUDY    77  73  88 SE3       29.98F                  
$$